Time,TemperatureF,DewpointF,PressureIn,WindDirection,WindDirectionDegrees,WindSpeedMPH,WindSpeedGustMPH,Humidity,HourlyPrecipIn,Conditions,Clouds,dailyrainin,SoftwareType,DateUTC
2013-03-02 00:01:00,25.0,23.0,30.18,NW,324,11.0,26.0,92,0.00,,,0.00,,2013-03-02 06:01:00,
2013-03-02 00:11:00,25.0,23.0,30.18,NW,324,11.0,26.0,92,0.00,,,0.00,,2013-03-02 06:11:00,
2013-03-02 00:21:00,25.0,23.0,30.18,NW,322,12.0,23.0,92,0.00,,,0.00,,2013-03-02 06:21:00,
2013-03-02 00:31:00,25.0,23.0,30.18,NW,322,12.0,20.0,91,0.00,,,0.00,,2013-03-02 06:31:00,
2013-03-02 00:42:00,25.0,23.0,30.18,NW,322,12.0,20.0,91,0.00,,,0.00,,2013-03-02 06:42:00,
2013-03-02 00:51:00,25.0,23.0,30.18,NNW,339,8.0,18.0,92,0.00,,,0.00,,2013-03-02 06:51:00,
2013-03-02 01:01:00,26.0,24.0,30.18,NNW,341,7.0,16.0,92,0.00,,,0.00,,2013-03-02 07:01:00,
2013-03-02 01:11:00,26.0,24.0,30.18,NNW,341,7.0,16.0,92,0.00,,,0.00,,2013-03-02 07:11:00,
2013-03-02 01:21:00,26.0,24.0,30.17,NW,306,7.0,15.0,92,0.00,,,0.00,,2013-03-02 07:21:00,
2013-03-02 01:32:00,26.0,24.0,30.17,NW,319,9.0,15.0,92,0.00,,,0.00,,2013-03-02 07:32:00,
2013-03-02 01:42:00,26.0,24.0,30.17,NW,319,9.0,15.0,92,0.00,,,0.00,,2013-03-02 07:42:00,
2013-03-02 01:51:00,26.0,24.0,30.17,NW,322,9.0,15.0,92,0.00,,,0.00,,2013-03-02 07:51:00,
2013-03-02 02:01:00,25.0,23.0,30.17,NNW,327,11.0,18.0,91,0.00,,,0.00,,2013-03-02 08:01:00,
2013-03-02 02:11:00,25.0,23.0,30.17,NNW,327,11.0,18.0,91,0.00,,,0.00,,2013-03-02 08:11:00,
2013-03-02 02:21:00,25.0,22.0,30.17,NNW,332,12.0,20.0,90,0.00,,,0.00,,2013-03-02 08:21:00,
2013-03-02 02:32:00,25.0,23.0,30.16,NW,326,9.0,18.0,91,0.00,,,0.00,,2013-03-02 08:32:00,
2013-03-02 02:42:00,25.0,23.0,30.16,NW,326,9.0,18.0,91,0.00,,,0.00,,2013-03-02 08:42:00,
2013-03-02 02:52:00,25.0,23.0,30.16,NNW,347,12.0,23.0,91,0.00,,,0.00,,2013-03-02 08:52:00,
2013-03-02 03:02:00,25.0,22.0,30.16,NW,324,12.0,21.0,90,0.00,,,0.00,,2013-03-02 09:02:00,
2013-03-02 03:11:00,25.0,22.0,30.16,NW,324,12.0,21.0,90,0.00,,,0.00,,2013-03-02 09:11:00,
2013-03-02 03:21:00,25.0,22.0,30.16,NW,311,12.0,20.0,90,0.00,,,0.00,,2013-03-02 09:21:00,
2013-03-02 03:32:00,25.0,23.0,30.16,NNW,331,12.0,22.0,91,0.00,,,0.00,,2013-03-02 09:32:00,
2013-03-02 03:42:00,25.0,23.0,30.16,NNW,331,12.0,22.0,91,0.00,,,0.00,,2013-03-02 09:42:00,
2013-03-02 03:51:00,25.0,22.0,30.16,NW,317,12.0,22.0,90,0.00,,,0.00,,2013-03-02 09:51:00,
2013-03-02 04:01:00,25.0,22.0,30.16,NW,326,13.0,21.0,89,0.00,,,0.00,,2013-03-02 10:01:00,
2013-03-02 04:15:00,25.0,22.0,30.16,NW,326,13.0,21.0,89,0.00,,,0.00,,2013-03-02 10:15:00,
2013-03-02 04:22:00,25.0,22.0,30.16,NW,317,12.0,25.0,89,0.00,,,0.00,,2013-03-02 10:22:00,
2013-03-02 04:32:00,24.0,21.0,30.16,NW,322,14.0,23.0,89,0.00,,,0.00,,2013-03-02 10:32:00,
2013-03-02 04:42:00,24.0,21.0,30.16,NW,322,14.0,23.0,89,0.00,,,0.00,,2013-03-02 10:42:00,
2013-03-02 04:52:00,24.0,21.0,30.16,NW,324,14.0,22.0,89,0.00,,,0.00,,2013-03-02 10:52:00,
2013-03-02 05:01:00,24.0,22.0,30.16,NW,316,13.0,22.0,90,0.00,,,0.00,,2013-03-02 11:01:00,
2013-03-02 05:11:00,24.0,22.0,30.16,NW,316,13.0,22.0,90,0.00,,,0.00,,2013-03-02 11:11:00,
2013-03-02 05:21:00,24.0,22.0,30.16,NW,316,13.0,22.0,90,0.00,,,0.00,,2013-03-02 11:21:00,
2013-03-02 05:32:00,24.0,22.0,30.16,NW,323,10.0,17.0,92,0.00,,,0.00,,2013-03-02 11:32:00,
2013-03-02 05:42:00,24.0,22.0,30.16,NW,323,10.0,17.0,92,0.00,,,0.00,,2013-03-02 11:42:00,
2013-03-02 05:52:00,24.0,22.0,30.17,NW,318,10.0,20.0,92,0.00,,,0.00,,2013-03-02 11:52:00,
2013-03-02 06:02:00,24.0,22.0,30.17,NW,306,12.0,21.0,93,0.00,,,0.00,,2013-03-02 12:02:00,
2013-03-02 06:11:00,24.0,22.0,30.17,NW,306,12.0,21.0,93,0.00,,,0.00,,2013-03-02 12:11:00,
2013-03-02 06:21:00,24.0,22.0,30.17,NW,306,10.0,22.0,93,0.00,,,0.00,,2013-03-02 12:21:00,
2013-03-02 06:33:00,24.0,23.0,30.17,NW,308,10.0,20.0,94,0.00,,,0.00,,2013-03-02 12:33:00,
2013-03-02 06:43:00,24.0,23.0,30.17,NW,308,10.0,20.0,94,0.00,,,0.00,,2013-03-02 12:43:00,
2013-03-02 06:53:00,24.0,22.0,30.18,WNW,296,12.0,21.0,93,0.00,,,0.00,,2013-03-02 12:53:00,
2013-03-02 07:01:00,24.0,22.0,30.18,WNW,302,13.0,22.0,93,0.00,,,0.00,,2013-03-02 13:01:00,
2013-03-02 07:11:00,24.0,22.0,30.18,WNW,302,13.0,22.0,93,0.00,,,0.00,,2013-03-02 13:11:00,
2013-03-02 07:22:00,24.0,22.0,30.19,NW,313,10.0,23.0,91,0.00,,,0.00,,2013-03-02 13:22:00,
2013-03-02 07:32:00,23.0,21.0,30.19,NW,313,13.0,22.0,92,0.00,,,0.00,,2013-03-02 13:32:00,
2013-03-02 07:42:00,23.0,21.0,30.19,NW,313,13.0,22.0,92,0.00,,,0.00,,2013-03-02 13:42:00,
2013-03-02 07:52:00,23.0,21.0,30.19,NW,313,10.0,17.0,92,0.00,,,0.00,,2013-03-02 13:52:00,
2013-03-02 08:01:00,24.0,22.0,30.19,NW,318,8.0,22.0,91,0.00,,,0.00,,2013-03-02 14:01:00,
2013-03-02 08:11:00,24.0,22.0,30.19,NW,318,8.0,22.0,91,0.00,,,0.00,,2013-03-02 14:11:00,
2013-03-02 08:21:00,24.0,21.0,30.19,NW,318,14.0,23.0,89,0.00,,,0.00,,2013-03-02 14:21:00,
2013-03-02 08:32:00,24.0,21.0,30.19,NW,323,14.0,25.0,88,0.00,,,0.00,,2013-03-02 14:32:00,
2013-03-02 08:42:00,24.0,21.0,30.19,NW,323,14.0,25.0,88,0.00,,,0.00,,2013-03-02 14:42:00,
2013-03-02 08:52:00,24.0,21.0,30.19,NW,304,11.0,22.0,89,0.00,,,0.00,,2013-03-02 14:52:00,
2013-03-02 09:02:00,24.0,21.0,30.20,NW,314,14.0,23.0,88,0.00,,,0.00,,2013-03-02 15:02:00,
2013-03-02 09:11:00,24.0,21.0,30.20,NW,314,14.0,23.0,88,0.00,,,0.00,,2013-03-02 15:11:00,
2013-03-02 09:21:00,24.0,21.0,30.20,NW,320,13.0,21.0,87,0.00,,,0.00,,2013-03-02 15:21:00,
2013-03-02 09:32:00,25.0,22.0,30.20,NW,318,10.0,22.0,87,0.00,,,0.00,,2013-03-02 15:32:00,
2013-03-02 09:42:00,25.0,22.0,30.20,NW,318,10.0,22.0,87,0.00,,,0.00,,2013-03-02 15:42:00,
2013-03-02 09:52:00,24.0,21.0,30.20,WNW,295,14.0,23.0,88,0.00,,,0.00,,2013-03-02 15:52:00,
2013-03-02 10:01:00,24.0,21.0,30.20,WNW,295,14.0,23.0,87,0.00,,,0.00,,2013-03-02 16:01:00,
2013-03-02 10:11:00,24.0,21.0,30.20,WNW,295,14.0,23.0,87,0.00,,,0.00,,2013-03-02 16:11:00,
2013-03-02 10:21:00,24.0,21.0,30.20,WNW,295,14.0,23.0,87,0.00,,,0.00,,2013-03-02 16:21:00,
2013-03-02 10:32:00,25.0,21.0,30.20,NW,306,13.0,24.0,85,0.00,,,0.00,,2013-03-02 16:32:00,
2013-03-02 10:42:00,25.0,21.0,30.20,NW,306,13.0,24.0,85,0.00,,,0.00,,2013-03-02 16:42:00,
2013-03-02 10:52:00,25.0,21.0,30.21,NW,305,13.0,20.0,85,0.00,,,0.00,,2013-03-02 16:52:00,
2013-03-02 11:01:00,25.0,21.0,30.20,NW,318,10.0,21.0,86,0.00,,,0.00,,2013-03-02 17:01:00,
2013-03-02 11:11:00,25.0,21.0,30.20,NW,318,10.0,21.0,86,0.00,,,0.00,,2013-03-02 17:11:00,
2013-03-02 11:21:00,26.0,22.0,30.20,NNW,332,11.0,21.0,84,0.00,,,0.00,,2013-03-02 17:21:00,
2013-03-02 11:32:00,26.0,22.0,30.20,NW,322,13.0,20.0,84,0.00,,,0.00,,2013-03-02 17:32:00,
2013-03-02 11:42:00,26.0,22.0,30.20,NW,322,13.0,20.0,84,0.00,,,0.00,,2013-03-02 17:42:00,
2013-03-02 11:52:00,26.0,21.0,30.20,NNW,334,14.0,21.0,82,0.00,,,0.00,,2013-03-02 17:52:00,
2013-03-02 12:02:00,27.0,23.0,30.20,NW,319,9.0,21.0,84,0.00,,,0.00,,2013-03-02 18:02:00,
2013-03-02 12:11:00,27.0,23.0,30.20,NW,319,9.0,21.0,84,0.00,,,0.00,,2013-03-02 18:11:00,
2013-03-02 12:22:00,26.0,22.0,30.20,NW,308,13.0,21.0,84,0.00,,,0.00,,2013-03-02 18:22:00,
2013-03-02 12:32:00,27.0,23.0,30.19,NNW,338,14.0,22.0,84,0.00,,,0.00,,2013-03-02 18:32:00,
2013-03-02 12:42:00,27.0,23.0,30.19,NNW,338,14.0,22.0,84,0.00,,,0.00,,2013-03-02 18:42:00,
2013-03-02 12:52:00,27.0,22.0,30.19,NW,316,12.0,21.0,82,0.00,,,0.00,,2013-03-02 18:52:00,
2013-03-02 13:01:00,27.0,23.0,30.19,WNW,297,14.0,24.0,83,0.00,,,0.00,,2013-03-02 19:01:00,
2013-03-02 13:11:00,27.0,23.0,30.19,WNW,297,14.0,24.0,83,0.00,,,0.00,,2013-03-02 19:11:00,
2013-03-02 13:21:00,27.0,22.0,30.19,NW,306,14.0,26.0,81,0.00,,,0.00,,2013-03-02 19:21:00,
2013-03-02 13:32:00,27.0,22.0,30.18,NW,313,16.0,26.0,80,0.00,,,0.00,,2013-03-02 19:32:00,
2013-03-02 13:42:00,27.0,22.0,30.18,NW,313,16.0,26.0,80,0.00,,,0.00,,2013-03-02 19:42:00,
2013-03-02 13:52:00,27.0,22.0,30.18,NW,310,15.0,25.0,80,0.00,,,0.00,,2013-03-02 19:52:00,
2013-03-02 14:01:00,27.0,23.0,30.18,WNW,299,14.0,23.0,83,0.00,,,0.00,,2013-03-02 20:01:00,
2013-03-02 14:11:00,27.0,23.0,30.18,WNW,299,14.0,23.0,83,0.00,,,0.00,,2013-03-02 20:11:00,
2013-03-02 14:22:00,27.0,22.0,30.18,WNW,302,15.0,24.0,81,0.00,,,0.00,,2013-03-02 20:22:00,
2013-03-02 14:32:00,27.0,22.0,30.17,NW,325,12.0,23.0,80,0.00,,,0.00,,2013-03-02 20:32:00,
2013-03-02 14:42:00,27.0,22.0,30.17,NW,325,12.0,23.0,80,0.00,,,0.00,,2013-03-02 20:42:00,
2013-03-02 14:52:00,27.0,21.0,30.17,NNW,329,13.0,21.0,79,0.00,,,0.00,,2013-03-02 20:52:00,
2013-03-02 15:02:00,28.0,22.0,30.18,NW,314,12.0,22.0,79,0.00,,,0.00,,2013-03-02 21:02:00,
2013-03-02 15:11:00,28.0,22.0,30.18,NW,314,12.0,22.0,79,0.00,,,0.00,,2013-03-02 21:11:00,
2013-03-02 15:22:00,28.0,23.0,30.18,NW,318,13.0,18.0,81,0.00,,,0.00,,2013-03-02 21:22:00,
2013-03-02 15:32:00,27.0,22.0,30.18,NNW,337,10.0,21.0,82,0.00,,,0.00,,2013-03-02 21:32:00,
2013-03-02 15:42:00,27.0,22.0,30.18,NNW,337,10.0,21.0,82,0.00,,,0.00,,2013-03-02 21:42:00,
2013-03-02 15:52:00,28.0,22.0,30.18,NW,306,14.0,21.0,79,0.00,,,0.00,,2013-03-02 21:52:00,
2013-03-02 16:02:00,27.0,21.0,30.18,WNW,300,16.0,24.0,78,0.00,,,0.00,,2013-03-02 22:02:00,
2013-03-02 16:11:00,27.0,21.0,30.18,WNW,300,16.0,24.0,78,0.00,,,0.00,,2013-03-02 22:11:00,
2013-03-02 16:22:00,27.0,21.0,30.18,West,274,13.0,20.0,79,0.00,,,0.00,,2013-03-02 22:22:00,
2013-03-02 16:32:00,27.0,21.0,30.18,NW,316,11.0,17.0,78,0.00,,,0.00,,2013-03-02 22:32:00,
2013-03-02 16:42:00,27.0,21.0,30.18,NW,316,11.0,17.0,78,0.00,,,0.00,,2013-03-02 22:42:00,
2013-03-02 16:51:00,27.0,20.0,30.18,NNW,339,10.0,20.0,76,0.00,,,0.00,,2013-03-02 22:51:00,
2013-03-02 17:01:00,26.0,19.0,30.18,NW,323,13.0,21.0,74,0.00,,,0.00,,2013-03-02 23:01:00,
2013-03-02 17:11:00,26.0,20.0,30.18,NW,326,10.0,20.0,77,0.00,,,0.00,,2013-03-02 23:11:00,
2013-03-02 17:21:00,26.0,20.0,30.18,NW,326,10.0,20.0,77,0.00,,,0.00,,2013-03-02 23:21:00,
2013-03-02 17:32:00,26.0,20.0,30.19,NW,312,9.0,17.0,79,0.00,,,0.00,,2013-03-02 23:32:00,
2013-03-02 17:42:00,26.0,20.0,30.19,NW,312,9.0,17.0,79,0.00,,,0.00,,2013-03-02 23:42:00,
2013-03-02 17:52:00,25.0,20.0,30.19,NW,325,10.0,15.0,80,0.00,,,0.00,,2013-03-02 23:52:00,
2013-03-02 18:02:00,24.0,18.0,30.19,NW,311,11.0,17.0,78,0.00,,,0.00,,2013-03-03 00:02:00,
2013-03-02 18:11:00,24.0,18.0,30.19,NW,311,11.0,17.0,78,0.00,,,0.00,,2013-03-03 00:11:00,
2013-03-02 18:22:00,24.0,18.0,30.19,NW,311,9.0,14.0,79,0.00,,,0.00,,2013-03-03 00:22:00,
2013-03-02 18:32:00,23.0,18.0,30.19,NW,309,9.0,14.0,82,0.00,,,0.00,,2013-03-03 00:32:00,
2013-03-02 18:42:00,23.0,18.0,30.19,NW,309,9.0,14.0,82,0.00,,,0.00,,2013-03-03 00:42:00,
2013-03-02 18:52:00,23.0,19.0,30.19,WNW,294,7.0,10.0,83,0.00,,,0.00,,2013-03-03 00:52:00,
2013-03-02 19:01:00,22.0,18.0,30.19,NW,323,7.0,10.0,84,0.00,,,0.00,,2013-03-03 01:01:00,
2013-03-02 19:11:00,22.0,18.0,30.19,NW,323,7.0,10.0,84,0.00,,,0.00,,2013-03-03 01:11:00,
2013-03-02 19:21:00,22.0,18.0,30.20,NW,306,7.0,13.0,84,0.00,,,0.00,,2013-03-03 01:21:00,
2013-03-02 19:32:00,21.0,17.0,30.20,WNW,290,7.0,10.0,85,0.00,,,0.00,,2013-03-03 01:32:00,
2013-03-02 19:42:00,21.0,17.0,30.20,WNW,290,7.0,10.0,85,0.00,,,0.00,,2013-03-03 01:42:00,
2013-03-02 19:52:00,21.0,17.0,30.20,WNW,287,9.0,14.0,85,0.00,,,0.00,,2013-03-03 01:52:00,
2013-03-02 20:01:00,20.0,16.0,30.20,WNW,292,8.0,12.0,85,0.00,,,0.00,,2013-03-03 02:01:00,
2013-03-02 20:11:00,20.0,16.0,30.20,WNW,292,8.0,12.0,85,0.00,,,0.00,,2013-03-03 02:11:00,
2013-03-02 20:21:00,20.0,16.0,30.20,WNW,301,7.0,10.0,85,0.00,,,0.00,,2013-03-03 02:21:00,
2013-03-02 20:32:00,20.0,16.0,30.20,WNW,299,6.0,12.0,86,0.00,,,0.00,,2013-03-03 02:32:00,
2013-03-02 20:41:00,20.0,16.0,30.20,WNW,299,6.0,12.0,86,0.00,,,0.00,,2013-03-03 02:41:00,
2013-03-02 20:52:00,19.0,15.0,30.20,WNW,295,6.0,10.0,85,0.00,,,0.00,,2013-03-03 02:52:00,
2013-03-02 21:01:00,19.0,15.0,30.19,NW,304,6.0,8.0,84,0.00,,,0.00,,2013-03-03 03:01:00,
2013-03-02 21:11:00,19.0,15.0,30.19,NW,304,6.0,8.0,84,0.00,,,0.00,,2013-03-03 03:11:00,
2013-03-02 21:21:00,19.0,15.0,30.20,WNW,298,7.0,10.0,83,0.00,,,0.00,,2013-03-03 03:21:00,
2013-03-02 21:31:00,19.0,15.0,30.19,WNW,297,6.0,8.0,83,0.00,,,0.00,,2013-03-03 03:31:00,
2013-03-02 21:41:00,19.0,15.0,30.19,WNW,297,6.0,8.0,83,0.00,,,0.00,,2013-03-03 03:41:00,
2013-03-02 21:51:00,19.0,15.0,30.19,WNW,287,6.0,7.0,84,0.00,,,0.00,,2013-03-03 03:51:00,
2013-03-02 22:01:00,19.0,15.0,30.20,WNW,283,6.0,8.0,84,0.00,,,0.00,,2013-03-03 04:01:00,
2013-03-02 22:11:00,19.0,15.0,30.20,WNW,283,6.0,8.0,84,0.00,,,0.00,,2013-03-03 04:11:00,
2013-03-02 22:21:00,19.0,15.0,30.20,WNW,284,6.0,9.0,85,0.00,,,0.00,,2013-03-03 04:21:00,
2013-03-02 22:32:00,19.0,15.0,30.19,West,281,6.0,9.0,85,0.00,,,0.00,,2013-03-03 04:32:00,
2013-03-02 22:42:00,19.0,15.0,30.19,West,281,6.0,9.0,85,0.00,,,0.00,,2013-03-03 04:42:00,
2013-03-02 22:51:00,18.0,14.0,30.19,WNW,288,7.0,9.0,85,0.00,,,0.00,,2013-03-03 04:51:00,
2013-03-02 23:02:00,18.0,15.0,30.19,NW,313,4.0,8.0,86,0.00,,,0.00,,2013-03-03 05:02:00,
2013-03-02 23:11:00,18.0,15.0,30.19,NW,313,4.0,8.0,86,0.00,,,0.00,,2013-03-03 05:11:00,
2013-03-02 23:22:00,18.0,14.0,30.18,NW,318,6.0,8.0,85,0.00,,,0.00,,2013-03-03 05:22:00,
2013-03-02 23:32:00,18.0,15.0,30.17,WNW,297,3.0,6.0,86,0.00,,,0.00,,2013-03-03 05:32:00,
2013-03-02 23:42:00,18.0,15.0,30.17,WNW,297,3.0,6.0,86,0.00,,,0.00,,2013-03-03 05:42:00,
2013-03-02 23:52:00,18.0,15.0,30.17,WNW,297,6.0,7.0,87,0.00,,,0.00,,2013-03-03 05:52:00,